{"data":{"norad_id":60519,"intl_designator":"2024-149BD","name":"FLOCK 4BE-28","alt_names":[],"object_type":"PAYLOAD","status":"ACTIVE","operator":null,"country":"US","launch_date":"2024-08-16","launch_site_code":"AFWTR","launch_vehicle":null,"mission":null,"orbit_class":"UNKNOWN","rcs_meters":null,"size_class":null,"mass_kg":null,"dimensions":null,"purposes":["earth_obs"],"wikipedia_slug":null,"has_3d_model":false,"image_url":null,"decayed_at":null,"tle_current":{"epoch":"2026-09-18T12:00:42.303168Z","epoch_age_seconds":187516,"freshness":"STALE","line1":"1 60519U 24149BD  26261.50048962  .00018658  00000+0  33340-3 0  9995","line2":"2 60519  97.3698 349.0438 0002573 329.4158  30.6943 15.50075245116877","mean_motion":15.50075245,"eccentricity":0.0002573,"inclination_deg":97.3698,"raan_deg":349.0438,"arg_perigee_deg":329.4158,"mean_anomaly_deg":30.6943,"bstar":0.0003334,"rev_number":11687,"period_min":92.898716023299,"perigee_km":414.7579112752,"apogee_km":418.25443465201,"semimajor_km":6794.6431729636,"source":"CELESTRAK","updated_at":"2026-09-20T09:00:34.716219Z"}}}